Location: Hall+in+Tirol
(47.2830°N, 11.5170°E)
Time: 22:56:47
(UTC+02:00)

Amateur Radio Satellites - All Passes

Search period start: 26 March 2017 22:26
Search period end: 27 March 2017 22:26
Location: Hall+in+Tirol, 47.2830°N, 11.5170°E

Satellite Date Start Highest point End Downlink Frequencies (MHz)
Time Altitude Azimuth
TIGRISAT 26 Mar 22:28:50 22:31:59 19° 91° (E) 22:35:05 435.000
BEESAT 3 26 Mar 22:29:41 22:32:23 18° 113° (ESE) 22:35:07 437.485
ZACube-1 26 Mar 22:34:41 22:37:02 14° 272° (W) 22:39:22 437.345
UNISAT 6 26 Mar 22:38:35 22:42:17 25° 93° (E) 22:45:53 437.425
ISS 26 Mar 22:42:44 22:46:01 88° 335° (NNW) 22:49:18 437.550
Tancredo 1 26 Mar 22:43:16 22:46:26 81° 336° (NNW) 22:49:38 437.200
BEESAT 2 26 Mar 22:46:52 22:47:59 11° 109° (ESE) 22:49:06 435.950
SO-50 26 Mar 22:47:24 22:51:22 29° 39° (NE) 22:55:18 436.795
ESTCUBE 1 26 Mar 23:07:01 23:11:06 36° 68° (ENE) 23:15:12 437.505/2401.250
FO-29 26 Mar 23:17:55 23:23:35 38° 95° (E) 23:28:42 435.910
AO-85 26 Mar 23:22:09 23:25:40 25° 320° (NW) 23:29:04 145.980
PRISM 26 Mar 23:27:03 23:31:07 55° 288° (WNW) 23:35:11 437.425
RS-15 26 Mar 23:27:25 23:38:57 51° 248° (WSW) 23:50:02 29.354- 29.394
SPROUT 26 Mar 23:29:27 23:32:24 18° 62° (ENE) 23:35:21 437.525
LO-87 26 Mar 23:42:54 23:46:23 48° 261° (W) 23:49:56 145.935 - 145.965
QB50P2 26 Mar 23:43:57 23:45:14 11° 87° (E) 23:46:31 145.880/145.840
DUCHIFAT 1 26 Mar 23:56:03 23:57:29 11° 88° (E) 23:58:55 145.980
DX 1 26 Mar 23:58:02 00:01:04 19° 61° (ENE) 00:04:07 434.975-435.025
TIGRISAT 27 Mar 00:04:41 00:08:58 49° 290° (WNW) 00:13:09 435.000
BEESAT 3 27 Mar 00:05:45 00:09:37 54° 311° (NW) 00:13:33 437.485
UNISAT 6 27 Mar 00:15:00 00:19:06 36° 292° (WNW) 00:23:06 437.425
VELOX 1 27 Mar 00:19:19 00:23:40 63° 72° (ENE) 00:28:04 145.980
ISS 27 Mar 00:19:38 00:22:44 38° 355° (N) 00:25:51 437.550
Tancredo 1 27 Mar 00:19:51 00:22:51 36° 356° (N) 00:25:51 437.200
AIST 2D 27 Mar 00:20:49 00:24:09 41° 98° (E) 00:27:28 435.315
BEESAT 2 27 Mar 00:21:07 00:25:06 86° 314° (NW) 00:29:09 435.950
SO-50 27 Mar 00:27:41 00:32:02 48° 239° (WSW) 00:36:21 436.795
UKube-1 27 Mar 00:37:11 00:41:00 31° 66° (ENE) 00:44:49 .
50 SAT 27 Mar 00:39:02 00:42:26 62° 74° (ENE) 00:45:52 437.505
NANOSAT C BR1 27 Mar 00:40:08 00:44:04 36° 97° (E) 00:47:57 145.865
ESTCUBE 1 27 Mar 00:44:13 00:47:59 26° 266° (W) 00:51:46 437.505/2401.250
EO-79 27 Mar 00:44:38 00:48:42 43° 99° (E) 00:52:44 145.935-145.965
FO-29 27 Mar 01:03:03 01:08:40 37° 297° (WNW) 01:13:44 435.910
SPROUT 27 Mar 01:03:43 01:07:56 54° 260° (W) 01:12:10 437.525
POLYITAN 1 27 Mar 01:12:41 01:16:57 87° 103° (ESE) 01:21:10 437.675
QB50P2 27 Mar 01:17:19 01:21:35 79° 286° (WNW) 01:25:48 145.880/145.840
Oscar 19 27 Mar 01:27:40 01:30:23 14° 88° (E) 01:33:06 437.125/150
O/OREOS (USA 219) 27 Mar 01:28:25 01:30:51 14° 43° (NE) 01:33:19 437.305
DUCHIFAT 1 27 Mar 01:29:27 01:33:42 76° 285° (WNW) 01:37:52 145.980
DX 1 27 Mar 01:32:37 01:36:52 53° 259° (W) 01:41:11 434.975-435.025
Gurwin Techsat 1B 27 Mar 01:43:16 01:44:57 11° 85° (E) 01:46:38 435.225
BUGSAT 1 27 Mar 01:45:23 01:49:32 56° 101° (E) 01:53:36 437.445
BEESAT 3 27 Mar 01:46:18 01:48:06 13° 333° (NNW) 01:49:55 437.485
AIST 2D 27 Mar 01:54:59 01:57:04 15° 296° (WNW) 01:59:09 435.315
Tancredo 1 27 Mar 01:56:15 01:59:23 50° 16° (NNE) 02:02:31 437.200
ISS 27 Mar 01:56:24 01:59:37 49° 15° (NNE) 02:02:51 437.550
VELOX 1 27 Mar 01:57:59 02:00:33 15° 270° (W) 02:03:08 145.980
BEESAT 2 27 Mar 02:00:51 02:03:28 17° 327° (NNW) 02:06:08 435.950
UKube-1 27 Mar 02:13:15 02:17:00 29° 264° (W) 02:20:48 .
NANOSAT C BR1 27 Mar 02:16:11 02:19:38 24° 295° (WNW) 02:23:02 145.865
BEESAT 27 Mar 02:19:28 02:23:40 31° 65° (ENE) 02:27:52 436.000
EO-79 27 Mar 02:21:00 02:24:12 21° 297° (WNW) 02:27:22 145.935-145.965
ITUPSAT 1 27 Mar 02:35:23 02:39:53 42° 68° (ENE) 02:44:24 437.325
MOZHAYETS 4 27 Mar 02:36:41 02:39:56 20° 62° (ENE) 02:43:13
POLYITAN 1 27 Mar 02:50:29 02:52:05 12° 302° (WNW) 02:53:40 437.675
QB50P2 27 Mar 02:56:09 02:56:37 10° 304° (NW) 02:57:05 145.880/145.840
Oscar 19 27 Mar 03:05:11 03:10:23 84° 285° (WNW) 03:15:33 437.125/150
O/OREOS (USA 219) 27 Mar 03:06:25 03:11:05 81° 66° (ENE) 03:15:40 437.305
ITAMSAT 1 27 Mar 03:15:01 03:17:30 13° 87° (E) 03:19:59 435.822/435.867
AO-7 27 Mar 03:16:16 03:21:12 17° 87° (E) 03:26:07 .
Gurwin Techsat 1B 27 Mar 03:20:24 03:25:46 79° 104° (ESE) 03:31:05 435.225
BUGSAT 1 27 Mar 03:21:46 03:24:28 17° 299° (WNW) 03:27:08 437.445
CUBESAT XI-V 27 Mar 03:30:36 03:32:37 13° 57° (ENE) 03:34:39 437.345
Tancredo 1 27 Mar 03:32:27 03:35:29 38° 214° (SW) 03:38:29 437.200
ISS 27 Mar 03:32:56 03:36:06 44° 214° (SSW) 03:39:15 437.550
KKS-1 27 Mar 03:53:05 03:56:46 26° 64° (ENE) 04:00:30 437.445
BEESAT 27 Mar 03:57:01 04:01:23 35° 263° (W) 04:05:46 436.000
MOZHAYETS 4 27 Mar 04:12:12 04:16:43 56° 260° (W) 04:21:15
ITUPSAT 1 27 Mar 04:13:55 04:17:52 25° 266° (W) 04:21:51 437.325
STARS 27 Mar 04:28:43 04:32:26 27° 65° (ENE) 04:36:11 437.465
AO-85 27 Mar 04:29:19 04:32:06 18° 35° (NE) 04:34:52 145.980
Oscar 19 27 Mar 04:46:13 04:48:55 14° 305° (NW) 04:51:38 437.125/150
O/OREOS (USA 219) 27 Mar 04:47:48 04:49:47 13° 263° (W) 04:51:46 437.305
M-CUBED/EXP-1 PRIME 27 Mar 04:48:39 04:49:49 11° 49° (NE) 04:51:00 437.505
ITAMSAT 1 27 Mar 04:52:27 04:57:42 88° 288° (WNW) 05:02:53 435.822/435.867
Gurwin Techsat 1B 27 Mar 05:01:34 05:05:06 18° 303° (WNW) 05:08:36 435.225
CUBESAT XI-V 27 Mar 05:04:42 05:09:18 89° 62° (ENE) 05:13:56 437.345
AO-7 27 Mar 05:07:02 05:15:22 76° 107° (ESE) 05:23:39 .
KKS-1 27 Mar 05:29:00 05:33:10 38° 262° (W) 05:37:23 437.445
DOVE 4 27 Mar 05:55:22 05:58:17 15° 86° (E) 06:01:09 437.250
STRAND 1 27 Mar 06:04:30 06:07:22 15° 56° (NE) 06:10:15 437.568
STARS 27 Mar 06:04:34 06:08:39 36° 263° (W) 06:12:47 437.465
AO-85 27 Mar 06:09:01 06:12:55 74° 237° (WSW) 06:16:55 145.980
M-CUBED/EXP-1 PRIME 27 Mar 06:19:44 06:23:28 83° 72° (ENE) 06:27:35 437.505
NUDT-PHONESAT 27 Mar 06:32:57 06:34:45 13° 90° (E) 06:36:33 437.300
ITAMSAT 1 27 Mar 06:33:28 06:36:25 15° 305° (NW) 06:39:22 435.822/435.867
XW-2D 27 Mar 06:33:48 06:36:22 17° 92° (E) 06:38:55 145.860 - 145.880
XW-2B 27 Mar 06:39:34 06:42:21 19° 93° (E) 06:45:07 145.730 - 145.750
KAITUO 1B 27 Mar 06:40:07 06:42:29 16° 92° (E) 06:44:49 145.475/437.950
YUBILEINY 27 Mar 06:41:58 06:47:39 20° 75° (ENE) 06:53:19 435.215
BEESAT 3 27 Mar 06:42:19 06:46:01 33° 43° (NE) 06:49:41 437.485
CUTE-I 27 Mar 06:44:21 06:48:43 25° 93° (E) 06:53:01 437.470
CUBESAT XI-V 27 Mar 06:46:08 06:47:21 11° 274° (W) 06:48:35 437.345
XW-2C 27 Mar 06:49:29 06:52:39 25° 95° (E) 06:55:47 145.795 - 145.815
BEESAT 2 27 Mar 06:58:41 07:02:03 24° 39° (NE) 07:05:24 435.950
AO-7 27 Mar 07:00:31 07:07:29 32° 308° (NW) 07:14:26 .
NO-84 27 Mar 07:11:10 07:13:20 19° 134° (SE) 07:15:29 435.350 FM
DOVE 4 27 Mar 07:31:16 07:36:37 86° 288° (WNW) 07:41:53 437.250
STRAND 1 27 Mar 07:40:40 07:45:49 88° 83° (E) 07:51:01 437.568
XW-2F 27 Mar 07:40:50 07:44:36 84° 281° (W) 07:48:19 145.980 - 146.000
LilacSat-2 27 Mar 07:42:49 07:46:36 74° 284° (WNW) 07:50:20 437.200
NUDT-PHONESAT 27 Mar 08:05:24 08:09:00 50° 287° (WNW) 08:12:33 437.300
XW-2D 27 Mar 08:07:13 08:10:44 38° 289° (WNW) 08:14:14 145.860 - 145.880
XW-2A 27 Mar 08:11:55 08:14:59 30° 97° (E) 08:18:00 145.665 - 145.685
KAITUO 1B 27 Mar 08:13:13 08:16:42 41° 289° (WNW) 08:20:11 145.475/437.950
XW-2B 27 Mar 08:13:14 08:16:40 34° 290° (WNW) 08:20:05 145.730 - 145.750
BEESAT 3 27 Mar 08:19:59 08:23:35 32° 242° (WSW) 08:27:09 437.485
XW-2C 27 Mar 08:23:37 08:26:49 27° 292° (WNW) 08:30:00 145.795 - 145.815
CUTE-I 27 Mar 08:23:50 08:29:02 52° 291° (WNW) 08:34:11 437.470
AAUSAT CUBESAT 2 27 Mar 08:26:21 08:28:31 14° 89° (E) 08:30:39 437.432
YUBILEINY 27 Mar 08:34:21 08:43:06 84° 97° (E) 08:51:52 435.215
CUBEBUG 2 27 Mar 08:35:58 08:39:37 24° 93° (E) 08:43:08 437.445
BEESAT 2 27 Mar 08:36:07 08:40:05 51° 238° (WSW) 08:44:00 435.950
HO-68 27 Mar 08:39:47 08:46:49 55° 101° (E) 08:53:49 435.675
SEEDS 27 Mar 08:41:43 08:45:38 38° 97° (E) 08:49:34 437.485
ZACube-1 27 Mar 08:43:52 08:44:33 10° 86° (E) 08:45:13 437.345
PRISM 27 Mar 08:45:20 08:48:05 18° 62° (ENE) 08:50:50 437.425
NO-84 27 Mar 08:47:52 08:50:38 48° 332° (NNW) 08:53:27 435.350 FM
CUTE 1.7 + AOD 2 27 Mar 08:49:09 08:53:22 70° 101° (ESE) 08:57:35 437.475
AO-73 27 Mar 09:10:05 09:13:03 18° 91° (E) 09:15:57 145.935
DOVE 4 27 Mar 09:10:30 09:13:31 16° 303° (WNW) 09:16:31 437.250
STRAND 1 27 Mar 09:23:18 09:25:42 13° 273° (W) 09:28:08 437.568
PCSat 27 Mar 09:25:23 09:29:28 22° 107° (ESE) 09:33:33 145.827
TIGRISAT 27 Mar 09:29:55 09:33:49 26° 65° (ENE) 09:37:40 435.000
FO-29 27 Mar 09:31:54 09:38:30 32° 61° (ENE) 09:44:41 435.910
UWE-3 27 Mar 09:37:22 09:41:41 64° 100° (E) 09:45:53 435.000/436.395/437.385
UNISAT 6 27 Mar 09:39:49 09:44:03 34° 67° (ENE) 09:48:14 437.425
DELFI C3 27 Mar 09:43:16 09:44:03 10° 88° (E) 09:44:49 145.870
XW-2A 27 Mar 09:45:09 09:47:34 18° 294° (WNW) 09:49:57 145.665 - 145.685
AAUSAT CUBESAT 2 27 Mar 10:00:16 10:04:23 61° 286° (WNW) 10:08:28 437.432
Oscar 11 27 Mar 10:08:48 10:13:05 64° 101° (E) 10:17:21 .
CUBEBUG 2 27 Mar 10:12:15 10:16:21 37° 292° (WNW) 10:20:19 437.445
ZACube-1 27 Mar 10:17:11 10:21:28 82° 286° (WNW) 10:25:38 437.345
SEEDS 27 Mar 10:17:51 10:21:08 23° 295° (WNW) 10:24:26 437.485
PRISM 27 Mar 10:19:03 10:23:00 50° 260° (W) 10:27:01 437.425
CUTE 1.7 + AOD 2 27 Mar 10:26:27 10:28:41 14° 300° (WNW) 10:30:56 437.475
NO-84 27 Mar 10:26:32 10:28:42 19° 354° (N) 10:30:56 435.350 FM
HO-68 27 Mar 10:27:56 10:34:18 36° 301° (WNW) 10:40:38 435.675
YUBILEINY 27 Mar 10:34:10 10:41:04 25° 300° (WNW) 10:48:00 435.215
POLYITAN 1 27 Mar 10:35:05 10:36:54 12° 58° (ENE) 10:38:40 437.675
QB50P2 27 Mar 10:39:07 10:41:27 14° 60° (ENE) 10:43:47 145.880/145.840
AO-73 27 Mar 10:45:30 10:49:34 45° 289° (WNW) 10:53:32 145.935
DUCHIFAT 1 27 Mar 10:50:30 10:52:51 15° 60° (ENE) 10:55:11 145.980
AIST 2D 27 Mar 10:58:22 11:01:19 25° 68° (ENE) 11:04:17 435.315
TIGRISAT 27 Mar 11:05:53 11:10:19 40° 262° (W) 11:14:43 435.000
PCSat 27 Mar 11:06:59 11:12:22 66° 307° (NW) 11:17:49 145.827
LO-87 27 Mar 11:08:50 11:09:50 11° 89° (E) 11:10:50 145.935 - 145.965
UWE-3 27 Mar 11:15:05 11:17:38 16° 300° (WNW) 11:20:09 435.000/436.395/437.385
DELFI C3 27 Mar 11:15:21 11:19:20 75° 285° (WNW) 11:23:19 145.870
FO-29 27 Mar 11:15:21 11:23:07 66° 259° (WSW) 11:30:22 435.910
UNISAT 6 27 Mar 11:16:37 11:20:45 30° 265° (W) 11:24:52 437.425
NANOSAT C BR1 27 Mar 11:34:50 11:38:49 40° 70° (ENE) 11:42:51 145.865
EO-79 27 Mar 11:39:36 11:43:43 49° 71° (ENE) 11:47:53 145.935-145.965
RS-15 27 Mar 11:44:36 11:53:23 25° 99° (E) 12:02:19 29.354- 29.394
Oscar 11 27 Mar 11:46:10 11:48:45 16° 299° (WNW) 11:51:20 .
ZACube-1 27 Mar 11:56:17 11:56:59 10° 304° (WNW) 11:57:41 437.345
NO-84 27 Mar 12:04:29 12:06:58 24° 15° (NNE) 12:09:35 435.350 FM
POLYITAN 1 27 Mar 12:07:43 12:12:02 86° 260° (W) 12:16:22 437.675
QB50P2 27 Mar 12:12:26 12:16:42 72° 257° (WSW) 12:21:01 145.880/145.840
DUCHIFAT 1 27 Mar 12:23:45 12:27:59 70° 258° (WSW) 12:32:16 145.980
AIST 2D 27 Mar 12:31:37 12:34:31 23° 265° (W) 12:37:26 435.315
ESTCUBE 1 27 Mar 12:32:25 12:36:49 50° 100° (E) 12:41:12 437.505/2401.250
AO-7 27 Mar 12:33:01 12:35:01 11° 30° (NNE) 12:37:02 .
BUGSAT 1 27 Mar 12:37:30 12:41:40 59° 73° (ENE) 12:45:53 437.445
LO-87 27 Mar 12:40:03 12:43:41 61° 286° (WNW) 12:47:17 145.935 - 145.965
SPROUT 27 Mar 12:46:48 12:50:03 20° 92° (E) 12:53:15 437.525
Oscar 19 27 Mar 12:46:55 12:51:17 29° 63° (ENE) 12:55:41 437.125/150
PCSat 27 Mar 12:53:11 12:56:50 18° 329° (NNW) 13:00:30 145.827
FO-29 27 Mar 13:05:37 13:09:16 14° 277° (W) 13:12:49 435.910
Gurwin Techsat 1B 27 Mar 13:06:03 13:10:27 27° 62° (ENE) 13:14:52 435.225
NANOSAT C BR1 27 Mar 13:11:23 13:14:42 22° 267° (W) 13:18:02 145.865
EO-79 27 Mar 13:16:48 13:19:46 18° 269° (W) 13:22:45 145.935-145.965
DX 1 27 Mar 13:18:05 13:21:24 21° 93° (E) 13:24:42 434.975-435.025
50 SAT 27 Mar 13:33:06 13:36:28 42° 99° (E) 13:39:49 437.505
NO-84 27 Mar 13:41:43 13:44:49 87° 205° (SSW) 13:48:08 435.350 FM
VELOX 1 27 Mar 13:42:18 13:46:47 82° 102° (ESE) 13:51:16 145.980
RS-15 27 Mar 13:51:53 14:03:56 81° 123° (ESE) 14:16:21 29.354- 29.394
UKube-1 27 Mar 13:56:26 14:00:26 35° 97° (E) 14:04:25 .
ESTCUBE 1 27 Mar 14:09:57 14:13:18 21° 298° (WNW) 14:16:37 437.505/2401.250
BUGSAT 1 27 Mar 14:14:56 14:17:25 15° 270° (W) 14:19:54 437.445
AO-7 27 Mar 14:18:04 14:25:21 36° 54° (NE) 14:32:38 .
SPROUT 27 Mar 14:22:05 14:26:10 43° 290° (WNW) 14:30:12 437.525
Oscar 19 27 Mar 14:25:37 14:30:27 42° 262° (W) 14:35:20 437.125/150
ITAMSAT 1 27 Mar 14:35:06 14:39:36 30° 63° (ENE) 14:44:06 435.822/435.867
Gurwin Techsat 1B 27 Mar 14:44:59 14:50:08 50° 261° (W) 14:55:19 435.225
SO-50 27 Mar 14:45:04 14:48:50 25° 115° (ESE) 14:52:35 436.795
DX 1 27 Mar 14:53:36 14:57:49 45° 290° (WNW) 15:01:59 434.975-435.025
50 SAT 27 Mar 15:07:05 15:09:12 15° 297° (WNW) 15:11:19 437.505
VELOX 1 27 Mar 15:20:23 15:22:37 14° 302° (WNW) 15:24:52 145.980
NO-84 27 Mar 15:20:31 15:21:59 12° 230° (SW) 15:23:31 435.350 FM
UKube-1 27 Mar 15:32:43 15:36:21 26° 295° (WNW) 15:39:58 .
BEESAT 27 Mar 15:53:19 15:57:54 46° 99° (E) 16:02:28 436.000
MOZHAYETS 4 27 Mar 16:04:13 16:08:05 27° 94° (E) 16:11:55
RS-15 27 Mar 16:06:08 16:17:46 46° 331° (NNW) 16:29:34 29.354- 29.394
AO-7 27 Mar 16:09:24 16:17:41 66° 255° (WSW) 16:25:58 .
ITUPSAT 1 27 Mar 16:09:58 16:14:43 64° 102° (ESE) 16:19:26 437.325
ITAMSAT 1 27 Mar 16:13:56 16:18:54 43° 261° (W) 16:23:53 435.822/435.867
SO-50 27 Mar 16:24:31 16:29:03 51° 313° (NW) 16:33:32 436.795
PCSat 27 Mar 16:26:13 16:28:43 13° 22° (NNE) 16:31:14 145.827
CUTE-I 27 Mar 16:34:58 16:35:14 10° 50° (NE) 16:35:31 437.470
YUBILEINY 27 Mar 16:46:30 16:49:39 12° 46° (NE) 16:52:48 435.215
CUBESAT XI-V 27 Mar 16:58:50 17:02:01 18° 90° (E) 17:05:13 437.345
DOVE 4 27 Mar 17:03:35 17:07:00 20° 60° (ENE) 17:10:34 437.250
KKS-1 27 Mar 17:16:31 17:20:33 31° 96° (E) 17:24:32 437.445
NUDT-PHONESAT 27 Mar 17:16:31 17:17:37 11° 60° (ENE) 17:18:42 437.300
XW-2D 27 Mar 17:18:40 17:20:51 15° 63° (ENE) 17:23:02 145.860 - 145.880
O/OREOS (USA 219) 27 Mar 17:21:43 17:26:06 50° 109° (ESE) 17:30:32 437.305
KAITUO 1B 27 Mar 17:23:58 17:25:50 13° 62° (ENE) 17:27:42 145.475/437.950
XW-2B 27 Mar 17:24:20 17:26:46 16° 64° (ENE) 17:29:12 145.730 - 145.750
HO-68 27 Mar 17:28:34 17:32:03 14° 44° (NE) 17:35:33 435.675
BEESAT 27 Mar 17:31:37 17:35:26 25° 297° (WNW) 17:39:15 436.000
XW-2C 27 Mar 17:34:02 17:36:55 21° 66° (ENE) 17:39:47 145.795 - 145.815
MOZHAYETS 4 27 Mar 17:41:08 17:45:19 37° 292° (WNW) 17:49:29
ITUPSAT 1 27 Mar 17:48:49 17:52:04 19° 301° (WNW) 17:55:19 437.325
STARS 27 Mar 17:50:28 17:54:26 31° 96° (E) 17:58:22 437.465
SO-50 27 Mar 18:08:00 18:10:32 14° 335° (NNW) 18:13:05 436.795
AO-7 27 Mar 18:08:11 18:12:04 14° 276° (W) 18:15:57 .
PCSat 27 Mar 18:08:36 18:13:42 39° 46° (NE) 18:18:47 145.827
CUTE-I 27 Mar 18:08:55 18:14:08 54° 69° (ENE) 18:19:23 437.470
RS-15 27 Mar 18:23:14 18:34:14 35° 4° (N) 18:45:06 29.354- 29.394
XW-2F 27 Mar 18:24:19 18:28:06 71° 75° (ENE) 18:31:52 145.980 - 146.000
LilacSat-2 27 Mar 18:27:13 18:31:02 83° 75° (ENE) 18:34:52 437.200
CUBESAT XI-V 27 Mar 18:35:11 18:39:45 57° 288° (WNW) 18:44:19 437.345
DOVE 4 27 Mar 18:39:27 18:44:09 64° 259° (W) 18:49:12 437.250
YUBILEINY 27 Mar 18:40:41 18:49:07 50° 72° (ENE) 18:57:31 435.215
XW-2A 27 Mar 18:46:43 18:49:12 19° 66° (ENE) 18:51:42 145.665 - 145.685
NUDT-PHONESAT 27 Mar 18:47:15 18:50:59 74° 258° (WSW) 18:54:44 437.300
XW-2D 27 Mar 18:50:56 18:54:40 52° 260° (W) 18:58:23 145.860 - 145.880
KKS-1 27 Mar 18:53:06 18:57:04 31° 294° (WNW) 19:01:00 437.445
KAITUO 1B 27 Mar 18:55:44 18:59:26 58° 260° (W) 19:03:08 145.475/437.950
XW-2B 27 Mar 18:56:58 19:00:38 46° 261° (W) 19:04:19 145.730 - 145.750
O/OREOS (USA 219) 27 Mar 19:02:09 19:05:47 23° 309° (NW) 19:09:28 437.305
UWE-3 27 Mar 19:04:09 19:05:29 11° 57° (ENE) 19:06:50 435.000/436.395/437.385
XW-2C 27 Mar 19:07:25 19:10:56 34° 263° (W) 19:14:27 145.795 - 145.815
HO-68 27 Mar 19:11:23 19:18:19 56° 65° (ENE) 19:25:16 435.675
AAUSAT CUBESAT 2 27 Mar 19:19:47 19:22:04 15° 61° (ENE) 19:24:21 437.432
STARS 27 Mar 19:26:51 19:30:44 30° 294° (WNW) 19:34:35 437.465
M-CUBED/EXP-1 PRIME 27 Mar 19:29:08 19:33:31 40° 103° (ESE) 19:37:55 437.505
SEEDS 27 Mar 19:36:10 19:40:02 39° 70° (ENE) 19:43:55 437.485
CUBEBUG 2 27 Mar 19:36:20 19:40:33 32° 67° (ENE) 19:44:44 437.445
ZACube-1 27 Mar 19:41:30 19:44:03 15° 60° (ENE) 19:46:35 437.345
CUTE 1.7 + AOD 2 27 Mar 19:44:25 19:48:37 72° 74° (ENE) 19:52:49 437.475
STRAND 1 27 Mar 19:48:34 19:52:40 24° 93° (E) 19:56:43 437.568
CUTE-I 27 Mar 19:50:14 19:54:30 24° 268° (W) 19:58:48 437.470
PCSat 27 Mar 19:52:04 19:57:08 40° 246° (WSW) 20:02:10 145.827
XW-2F 27 Mar 20:02:33 20:02:43 10° 272° (W) 20:02:52 145.980 - 146.000
AO-73 27 Mar 20:08:08 20:11:42 24° 65° (ENE) 20:15:14 145.935
XW-2A 27 Mar 20:18:41 20:21:48 31° 263° (W) 20:24:55 145.665 - 145.685
AO-85 27 Mar 20:27:47 20:30:20 15° 113° (ESE) 20:32:49 145.980
DELFI C3 27 Mar 20:32:33 20:33:11 10° 58° (ENE) 20:33:50 145.870
UWE-3 27 Mar 20:36:31 20:41:10 76° 75° (ENE) 20:45:46 435.000/436.395/437.385
YUBILEINY 27 Mar 20:37:50 20:45:47 42° 274° (W) 20:53:44 435.215
RS-15 27 Mar 20:38:06 20:50:14 55° 37° (NE) 21:01:54 29.354- 29.394
AAUSAT CUBESAT 2 27 Mar 20:52:59 20:57:03 63° 259° (W) 21:01:09 437.432
HO-68 27 Mar 21:00:03 21:06:22 33° 265° (W) 21:12:44 435.675
M-CUBED/EXP-1 PRIME 27 Mar 21:03:48 21:07:47 29° 300° (WNW) 21:11:48 437.505
Oscar 11 27 Mar 21:06:12 21:10:29 72° 75° (ENE) 21:14:48 .
SEEDS 27 Mar 21:12:41 21:15:52 21° 268° (W) 21:19:05 437.485
CUBEBUG 2 27 Mar 21:12:49 21:17:06 33° 264° (W) 21:21:23 437.445
ZACube-1 27 Mar 21:15:15 21:19:48 74° 259° (WSW) 21:24:17 437.345
CUTE 1.7 + AOD 2 27 Mar 21:23:17 21:24:57 12° 272° (W) 21:26:37 437.475
STRAND 1 27 Mar 21:27:10 21:32:07 50° 291° (WNW) 21:37:02 437.568
SO-50 27 Mar 21:32:54 21:35:31 15° 25° (NNE) 21:38:08 436.795
AO-73 27 Mar 21:43:25 21:47:43 42° 262° (W) 21:51:58 145.935
Tancredo 1 27 Mar 21:46:00 21:49:07 59° 150° (SSE) 21:52:15 437.200
ISS 27 Mar 21:50:27 21:53:40 58° 149° (SSE) 21:56:54 437.550
PRISM 27 Mar 21:57:53 22:00:42 17° 92° (E) 22:03:29 437.425
DELFI C3 27 Mar 22:03:25 22:07:19 88° 255° (WSW) 22:11:17 145.870
AO-85 27 Mar 22:05:59 22:10:19 69° 309° (NW) 22:14:23 145.980
BEESAT 3 27 Mar 22:13:14 22:15:56 18° 113° (ESE) 22:18:40 437.485
UWE-3 27 Mar 22:15:49 22:18:08 14° 272° (W) 22:20:27 435.000/436.395/437.385
